Flag for Poland Weather past 2 weeks in Opole, Poland

Now
55 °F

Sunny.


Feels Like: 55 °F
Forecast: 53 / 68 °F
Wind: 3 mph from Southeast

Location: Wroclaw Ii

Current Time: Apr 25, 2015 at 9:14:01 AM

Latest Report: Apr 25, 2015 at 8:30 AM


Visibility: 10 mi

Pressure: 29.89 "Hg

Humidity: 72%

Dew point: 46 °F

Location of OpoleLocation

Historic Weather in Opole — Graph

°F

Opole temperature yesterday

Maximum temperature yesterday: 70 °F (at 3:30 PM)
Minimum temperature yesterday: 45 °F (at 4:00 AM)
Average temperature yesterday: 59 °F

Past Weeks' High & Low Weather Summary

 TemperatureHumidityPressure
High73 °F (Apr 11, 3:00 PM)93% (Apr 11, 4:30 AM)30.45 "Hg (Apr 11, 4:30 AM)
Low32 °F (Apr 19, 5:30 AM)20% (Apr 21, 3:00 PM)29.83 "Hg (Apr 15, 11:30 PM)
Average53 °F55%30.10 "Hg
* Reported Apr 10 8:00 AM — Apr 25 8:00 AM, Opole, Weather by CustomWeather, © 2015

Note: Actual official high and low records may vary slightly from our data, if they occured in-between our weather recording intervals... More about our weather records

Advertising

Opole weather history for previous 24 hours

 ConditionsComfort  
Time TempWeatherWind HumidityBarometerVisibility
8:00 AM
Sat, Apr 25
54 °FSunny.3 mph77%29.89 "Hg10 mi
7:30 AM50 °FSunny.3 mph82%29.89 "Hg10 mi
7:00 AM46 °FSunny.2 mph87%29.89 "Hg10 mi
6:30 AM43 °FClear.2 mph87%29.89 "Hg10 mi
6:00 AM43 °FFog.5 mph87%29.89 "HgN/A
5:30 AM43 °FFog.3 mph87%29.89 "HgN/A
5:00 AM43 °FFog.3 mph87%29.89 "HgN/A
4:30 AM43 °FClear.2 mph87%29.89 "Hg10 mi
4:00 AM43 °FClear.2 mph87%29.89 "Hg10 mi
3:30 AM45 °FClear.2 mph87%29.89 "Hg10 mi
3:00 AM46 °FClear.2 mph82%29.89 "Hg10 mi
2:00 AM46 °FClear.1 mph87%29.89 "Hg10 mi
1:30 AM46 °FClear.1 mph87%29.89 "Hg10 mi
1:00 AM48 °FClear.2 mph76%29.92 "Hg10 mi
12:30 AM52 °FPassing clouds.3 mph72%29.92 "HgN/A
12:00 AM54 °FClear.5 mph67%29.92 "Hg10 mi
11:30 PM
Fri, Apr 24
55 °FClear.6 mph63%29.92 "Hg10 mi
11:00 PM55 °FPassing clouds.3 mph63%29.92 "HgN/A
10:30 PM57 °FClear.3 mph59%29.92 "Hg10 mi
10:00 PM55 °FClear.1 mph67%29.92 "Hg10 mi
9:30 PM55 °FClear.No wind67%29.89 "Hg10 mi
9:00 PM55 °FSunny.1 mph63%29.89 "Hg10 mi
8:30 PM61 °FSunny.2 mph52%29.89 "Hg10 mi
8:00 PM63 °FSunny.2 mph49%29.89 "Hg10 mi
7:30 PM66 °FSunny.3 mph43%29.89 "Hg10 mi
7:00 PM68 °FPassing clouds.3 mph40%29.89 "HgN/A
6:30 PM68 °FSunny.5 mph40%29.89 "Hg10 mi
6:00 PM68 °FPassing clouds.6 mph38%29.89 "HgN/A
5:30 PM68 °FPassing clouds.6 mph40%29.89 "HgN/A
5:00 PM70 °FPassing clouds.7 mph38%29.89 "HgN/A
4:30 PM70 °FPassing clouds.8 mph38%29.92 "HgN/A
4:00 PM68 °FPassing clouds.9 mph38%29.92 "HgN/A
3:30 PM70 °FSunny.7 mph35%29.92 "Hg10 mi
3:00 PM68 °FPassing clouds.7 mph40%29.92 "HgN/A
2:30 PM68 °FPassing clouds.9 mph43%29.92 "HgN/A
2:00 PM66 °FPassing clouds.8 mph40%29.95 "HgN/A
1:30 PM66 °FPassing clouds.8 mph40%29.95 "HgN/A
1:00 PM66 °FPassing clouds.7 mph40%29.95 "HgN/A
12:30 PM64 °FSunny.3 mph46%29.95 "Hg10 mi
12:00 PM64 °FPassing clouds.8 mph43%29.98 "HgN/A
11:30 AM64 °FPassing clouds.6 mph46%29.98 "HgN/A
11:00 AM63 °FPassing clouds.8 mph45%29.98 "HgN/A
10:30 AM61 °FPassing clouds.6 mph52%29.98 "HgN/A
10:00 AM61 °FPassing clouds.6 mph52%29.98 "HgN/A
9:30 AM59 °FPassing clouds.6 mph59%29.98 "HgN/A
9:00 AM57 °FPassing clouds.7 mph59%29.98 "HgN/A
Weather by CustomWeather, © 2015

See weather overviewHow to use our weather pages